Location: Recife
(8.0585°S, 34.8848°W)
Time: 12:59:39
(UTC-03:00)

Transit 4A - Pass Details

Date: 18 April 2026
Orbit: 861 x 980 km, 66.8° (Epoch: 12 May)

Event Time Altitude Azimuth Distance (km) Brightness Sun altitude
Rises 23:21:04 0° 356° (N) 3,651 - -86.9°
Reaches altitude 10° 23:23:49 10° 4° (N) 2,699 - -86.7°
Maximum altitude 23:29:39 40° 71° (ENE) 1,380 - -85.9°
Drops below altitude 10° 23:35:22 10° 139° (SE) 2,651 - -84.9°
Sets 23:38:01 0° 146° (SE) 3,580 - -84.3°
